Location: Boncourt
(49.6160°N, 3.9448°E)
Time: 15:55:52
(UTC+00:00)

IGS 5A - Pass Details

Date: 09 February 2023
Orbit: 578 x 583 km, 97.5° (Epoch: 10 March)

Event Time Altitude Azimuth Distance (km) Brightness Sun altitude
Exits shadow 18:51:43 26° 152° (SSE) 1,158 4.7 -19.6°
Maximum altitude 18:53:56 70° 74° (ENE) 621 3.3 -20.0°
Drops below altitude 10° 18:58:04 10° 351° (N) 1,908 6.2 -20.7°
Sets 19:00:14 0° 349° (N) 2,811 7.1 -21.0°
